Volver al catálogo

SL-14 DEB

ActivoPO
NORAD 45347·DEBRIS·🇷🇺 Russia

Lanzado Aug 15, 1991 desde Plesetsk Cosmodrome

Loading…

Próximos Pases (próximas 24 horas)

TLE

ActualizadoSource: Space-Track

Época: Sep 13, 2026, 10:46 UTC

1 45347U 91056CG  26256.44923086  .00006886  00000-0  42246-2 0  9999
2 45347  82.6336 302.3939 0107620  15.5588 344.8846 14.02751659328404

Sigue SL-14 DEB en tiempo real con AllMySat

Download on the App Store